Weather History for Claremore, OK

Change the Weather History Date:

Wednesday, April 3, 2013

  Actual Average (KTUL) Record (KTUL)
Temperature  
Mean Temperature 40 °F 57 °F  
Max Temperature 44 °F 68 °F 88 °F (1965)
Min Temperature 37 °F 45 °F 23 °F (1975)
Degree Days  
Heating Degree Days 24 9  
Month to date heating degree days 28  
Since 1 July heating degree days 3377  
Cooling Degree Days 0 1  
Month to date cooling degree days 3  
Year to date cooling degree days 15  
Moisture  
Dew Point 32 °F    
Average Humidity 73    
Maximum Humidity 87    
Minimum Humidity 49    
Precipitation  
Precipitation 0.09 in 0.10 in 1.25 in (1978)
Month to date precipitation 0.31  
Year to date precipitation 7.11  
Sea Level Pressure  
Sea Level Pressure 30.24 in    
Wind  
Wind Speed 9 mph (NE)    
Max Wind Speed 15 mph    
Max Gust Speed 21 mph    
Visibility 10 miles    
Events Rain    
T = Trace of Precipitation, MM = Missing Value Source: NWS Daily Summary

Daily Weather History Graph

Daily Weather History Graph

Search for Another Location

Airport:

Trip Planner

Search our weather history database for the weather conditions in past years. The results will help you decide how hot, cold, wet, or windy it might be!

Date:

Astronomy

Apr. 03, 2013 Rise Set
Actual Time 7:04 AM CDT 7:45 PM CDT
Civil Twilight 6:38 AM CDT 8:11 PM CDT
Nautical Twilight 6:08 AM CDT 8:42 PM CDT
Astronomical Twilight 5:36 AM CDT 9:14 PM CDT
Moon 2:35 AM CDT (4/3) 1:09 PM CDT (4/3)
Length of Visible Light 13h 33m
Length of Day
12h 41m
Last Quarter, 44% of the Moon is Illuminated
Apr 3
Last Quarter
Apr 10
New
Apr 18
First Quarter
Apr 25
Full
May 2
Last Quarter

Hourly Weather History & Observations

Time (CDT) Temp. Windchill Dew Point Humidity Pressure Visibility Wind Dir Wind Speed Gust Speed Precip Events Conditions
12:15 AM 37.4 °F 29.8 °F 33.8 °F 87% 30.21 in 10.0 mi ENE 11.5 mph - N/A   Scattered Clouds
12:35 AM 37.4 °F 30.3 °F 33.8 °F 87% 30.22 in 10.0 mi ENE 10.4 mph - N/A   Mostly Cloudy
12:55 AM 37.4 °F 30.8 °F 33.8 °F 87% 30.23 in 10.0 mi ENE 9.2 mph - N/A   Overcast
1:15 AM 37.4 °F 30.8 °F 33.8 °F 87% 30.23 in 10.0 mi ENE 9.2 mph - N/A   Overcast
1:35 AM 37.4 °F 32.1 °F 33.8 °F 87% 30.24 in 10.0 mi ENE 6.9 mph - N/A   Overcast
1:55 AM 37.4 °F 30.3 °F 33.8 °F 87% 30.23 in 10.0 mi ENE 10.4 mph - N/A   Overcast
2:15 AM 37.4 °F 29.8 °F 33.8 °F 87% 30.22 in 10.0 mi ENE 11.5 mph - N/A   Overcast
2:35 AM 37.4 °F 29.8 °F 33.8 °F 87% 30.22 in 10.0 mi ENE 11.5 mph - N/A   Overcast
2:55 AM 39.2 °F 32.5 °F 32.0 °F 75% 30.21 in 10.0 mi ENE 10.4 mph - N/A   Overcast
3:15 AM 39.2 °F 33.0 °F 32.0 °F 75% 30.21 in 10.0 mi NE 9.2 mph - N/A   Overcast
3:35 AM 39.2 °F 33.0 °F 32.0 °F 75% 30.20 in 10.0 mi NE 9.2 mph - N/A   Overcast
3:55 AM 39.2 °F 33.6 °F 32.0 °F 75% 30.20 in 10.0 mi NE 8.1 mph - N/A   Overcast
4:15 AM 39.2 °F 33.6 °F 32.0 °F 75% 30.20 in 10.0 mi NE 8.1 mph - N/A   Overcast
4:35 AM 39.2 °F 33.0 °F 32.0 °F 75% 30.21 in 10.0 mi ENE 9.2 mph - N/A   Overcast
4:55 AM 39.2 °F 31.6 °F 32.0 °F 75% 30.22 in 10.0 mi ENE 12.7 mph - N/A   Overcast
5:15 AM 39.2 °F 33.0 °F 32.0 °F 75% 30.23 in 10.0 mi ENE 9.2 mph - N/A   Overcast
5:35 AM 39.2 °F 32.5 °F 32.0 °F 75% 30.23 in 10.0 mi ENE 10.4 mph - N/A   Overcast
5:55 AM 39.2 °F 33.0 °F 32.0 °F 75% 30.23 in 10.0 mi ENE 9.2 mph - N/A   Overcast
6:15 AM 39.2 °F 32.5 °F 32.0 °F 75% 30.24 in 10.0 mi ENE 10.4 mph - N/A   Overcast
6:35 AM 39.2 °F 32.0 °F 32.0 °F 75% 30.24 in 10.0 mi ENE 11.5 mph - N/A   Overcast
6:55 AM 39.2 °F 32.0 °F 32.0 °F 75% 30.25 in 10.0 mi ENE 11.5 mph - N/A   Overcast
7:15 AM 39.2 °F 33.0 °F 32.0 °F 75% 30.25 in 10.0 mi ENE 9.2 mph - N/A   Overcast
7:35 AM 39.2 °F 33.0 °F 32.0 °F 75% 30.26 in 10.0 mi ENE 9.2 mph - N/A   Overcast
7:55 AM 39.2 °F 35.0 °F 32.0 °F 75% 30.27 in 10.0 mi ENE 5.8 mph - N/A   Overcast
8:15 AM 39.2 °F 33.0 °F 32.0 °F 75% 30.27 in 10.0 mi ENE 9.2 mph - N/A   Overcast
8:35 AM 39.2 °F 31.6 °F 32.0 °F 75% 30.25 in 10.0 mi ENE 12.7 mph - N/A   Mostly Cloudy
8:55 AM 41.0 °F 33.1 °F 32.0 °F 70% 30.24 in 10.0 mi East 15.0 mph 20.7 mph N/A   Scattered Clouds
9:15 AM 41.0 °F 34.7 °F 32.0 °F 70% 30.25 in 10.0 mi ENE 10.4 mph 20.7 mph N/A   Scattered Clouds
9:35 AM 41.0 °F 35.2 °F 30.2 °F 65% 30.27 in 10.0 mi NE 9.2 mph - N/A   Mostly Cloudy
10:15 AM 41.0 °F 35.2 °F 30.2 °F 65% 30.27 in 10.0 mi ENE 9.2 mph - N/A   Overcast
10:35 AM 41.0 °F 35.2 °F 30.2 °F 65% 30.28 in 10.0 mi ENE 9.2 mph - N/A   Overcast
10:55 AM 41.0 °F 35.8 °F 30.2 °F 65% 30.28 in 10.0 mi ENE 8.1 mph - N/A   Unknown
11:15 AM 41.0 °F 37.1 °F 30.2 °F 65% 30.29 in 10.0 mi ENE 5.8 mph - N/A   Overcast
11:35 AM 42.8 °F 37.5 °F 28.4 °F 57% 30.27 in 10.0 mi ENE 9.2 mph - N/A   Overcast
11:55 AM 42.8 °F 37.0 °F 28.4 °F 57% 30.27 in 10.0 mi ENE 10.4 mph - N/A   Overcast
12:15 PM 42.8 °F 37.0 °F 28.4 °F 57% 30.27 in 10.0 mi ENE 10.4 mph - N/A   Overcast
12:35 PM 42.8 °F 37.5 °F 28.4 °F 57% 30.27 in 10.0 mi NE 9.2 mph - N/A   Overcast
12:55 PM 42.8 °F 37.0 °F 28.4 °F 57% 30.27 in 10.0 mi ENE 10.4 mph - N/A   Mostly Cloudy
1:35 PM 44.6 °F 38.1 °F 26.6 °F 49% 30.25 in 10.0 mi ENE 13.8 mph - N/A   Overcast
1:55 PM 44.6 °F 38.4 °F 26.6 °F 49% 30.25 in 10.0 mi ENE 12.7 mph - N/A   Overcast
2:15 PM 44.6 °F 38.1 °F 26.6 °F 49% 30.25 in 10.0 mi ENE 13.8 mph 18.4 mph N/A   Overcast
2:35 PM 44.6 °F 39.7 °F 28.4 °F 53% 30.25 in 10.0 mi NE 9.2 mph - N/A   Overcast
2:55 PM 44.6 °F 39.2 °F 26.6 °F 49% 30.25 in 10.0 mi NE 10.4 mph 16.1 mph N/A Rain Light Rain
3:15 PM 44.6 °F 40.2 °F 30.2 °F 57% 30.25 in 10.0 mi NE 8.1 mph - N/A Rain Light Rain
3:35 PM 44.6 °F 41.4 °F 30.2 °F 57% 30.25 in 10.0 mi NNE 5.8 mph - N/A Rain Rain
3:55 PM 44.6 °F 40.7 °F 30.2 °F 57% 30.24 in 10.0 mi NNE 6.9 mph - N/A Rain Light Rain
4:15 PM 44.6 °F 39.7 °F 30.2 °F 57% 30.23 in 10.0 mi NNE 9.2 mph - N/A   Overcast
4:35 PM 44.6 °F 41.4 °F 30.2 °F 57% 30.24 in 10.0 mi North 5.8 mph - N/A   Overcast
4:55 PM 44.6 °F 41.4 °F 30.2 °F 57% 30.23 in 10.0 mi NNE 5.8 mph - N/A   Overcast
5:15 PM 44.6 °F 42.2 °F 32.0 °F 61% 30.23 in 10.0 mi North 4.6 mph - N/A   Mostly Cloudy
5:35 PM 42.8 °F 38.0 °F 33.8 °F 70% 30.22 in 5.0 mi NE 8.1 mph - 0.03 in Rain Rain
5:55 PM 41.0 °F 37.1 °F 35.6 °F 81% 30.23 in 7.0 mi NNE 5.8 mph - 0.05 in Rain Rain
6:15 PM 41.0 °F 38.0 °F 35.6 °F 81% 30.23 in 10.0 mi North 4.6 mph - 0.01 in Rain Light Rain
6:35 PM 41.0 °F 37.1 °F 35.6 °F 81% 30.22 in 10.0 mi NNE 5.8 mph - 0.02 in Rain Light Rain
6:55 PM 41.0 °F 37.1 °F 35.6 °F 81% 30.22 in 10.0 mi NNE 5.8 mph - 0.02 in Rain Light Rain
7:15 PM 41.0 °F 35.8 °F 35.6 °F 81% 30.22 in 10.0 mi NNE 8.1 mph - N/A Rain Light Rain
7:35 PM 41.0 °F 36.4 °F 35.6 °F 81% 30.22 in 10.0 mi NNE 6.9 mph - N/A   Scattered Clouds
7:55 PM 41.0 °F 37.1 °F 35.6 °F 81% 30.21 in 10.0 mi NNE 5.8 mph - N/A   Mostly Cloudy
8:15 PM 41.0 °F 38.0 °F 35.6 °F 81% 30.22 in 10.0 mi NNE 4.6 mph - N/A   Mostly Cloudy
8:35 PM 41.0 °F 39.0 °F 35.6 °F 81% 30.22 in 10.0 mi North 3.5 mph - N/A   Light Drizzle
8:55 PM 41.0 °F - 35.6 °F 81% 30.22 in 10.0 mi Calm Calm - N/A Rain Light Rain
9:15 PM 41.0 °F - 35.6 °F 81% 30.23 in 10.0 mi Calm Calm - N/A   Light Drizzle
9:35 PM 41.0 °F - 35.6 °F 81% 30.23 in 10.0 mi Calm Calm - N/A   Drizzle
9:55 PM 41.0 °F - 37.4 °F 87% 30.23 in 10.0 mi Calm Calm - 0.01 in Rain Light Rain
10:15 PM 41.0 °F - 37.4 °F 87% 30.23 in 10.0 mi Calm Calm - N/A Rain Rain
10:35 PM 41.0 °F - 37.4 °F 87% 30.23 in 10.0 mi Calm Calm - 0.01 in Rain Light Rain
10:55 PM 41.0 °F - 37.4 °F 87% 30.23 in 10.0 mi Calm Calm - 0.01 in Rain Rain
11:15 PM 41.0 °F - 37.4 °F 87% 30.22 in 10.0 mi Calm Calm - N/A   Light Drizzle
11:35 PM 41.0 °F 38.0 °F 37.4 °F 87% 30.22 in 10.0 mi North 4.6 mph - N/A   Mostly Cloudy
11:55 PM 41.0 °F 38.0 °F 37.4 °F 87% 30.22 in 10.0 mi NNW 4.6 mph - N/A   Light Drizzle